Weather in Novi Mlyny

Ukraine / Chernihiv Region     51°25′26″N   32°41′49″E
temp.,
°C
wind,
m/s
gust,
m/s
humid.,
%
clouds,
%
prec.,
mm/h
press.,
hPa
HPBL,
m
5 march, fri
fri523:00+1nw399694 0.5 1007541
02:00−2wnw359473 0.5 1008124
05:00−4nw349587 0.0 101060
08:00−3nnw259488 0.0 1011152
11:00−1nw239843 0.0 1013349
14:000nnw349167 0.0 1014657
17:00−2nnw2387100 0.0 101534
20:00−4nnw2388100 0.0 101728
6 march, sat
sat623:00−5nw2389100 0.0 101824
02:00−6nw3690100 0.0 1020123
05:00−7nnw3889100 0.0 1019146
08:00−7nw498750 0.0 1021282
11:00−3nw58720 0.0 1022931
14:00−2wnw567630 0.1 10211147
17:00−4wnw338555 0.1 102138
20:00−7w238527 0.1 102222
7 march, sun
sun723:00−8wsw34890 0.0 102247
02:00−9wsw49890 0.0 1021150
05:00−7sw6138551 0.0 1018312
08:00−4sw8168375 0.0 1015653
11:000wsw111784100 0.0 10111178
14:000w101698100 0.1 10101227
17:00+1w81588100 0.1 1009977
20:00−1wsw6158781 0.3 1009582
8 march, mon
mon823:00−2wsw6148987 0.1 1008571
02:00−1wsw8159194 0.1 1006866
05:00−3nnw61094100 1.2 1006654
08:00−3wnw5118799 1.3 1008817
11:00−2nw588064 0.1 10111108
14:00−2wnw457480 0.1 10121082
17:00−4wnw228452 0.0 101221
20:00−7wsw118726 0.0 101321
9 march, tue
tue923:00−7wsw22893 0.0 101321
02:00−6w239251 0.0 101347
05:00−7n3795100 0.1 1015180
08:00−8n599095 0.1 1017519
11:00−7nnw688298 0.0 1019794
14:00−6nnw577994 0.0 1021918
17:00−7nw358699 0.0 1022152
20:00−9wnw348651 0.0 102450